User: anonymous   Login
Location: Unspecified
(0.0000°N, 0.0000°E)
Time: 08:58:51
(UTC+02:00)
Language:

Ariane H10 - Orbit

View from above orbital plane
View from above orbital plane
View from above satellite
View from above satellite

Ground track
Ground track

The orbit data is extracted from the following two-line orbital elements,

1 21727U 91067B   17176.52140618 +.00000102 +00000-0 +54837-3 0  9994
2 21727 004.4712 331.6376 7191475 153.8594 275.3398 02.31927986178153
Epoch (UTC): 25 June 2017 12:30:49
Eccentricity: 0.7191475
inclination: 4.4712°
perigee height: 393 km
apogee height: 35067 km
right ascension of ascending node: 331.6376°
argument of perigee: 153.8594°
revolutions per day: 2.31927986
mean anomaly at epoch: 275.3398°
orbit number at epoch: 17815

The dashed part of the orbit path shows where the satellite is in the earth's shadow,  

DLR